Location: Boiro
(42.6475°N, 8.8834°W)
Time: 06:44:47
(UTC+02:00)

SL-8 DEB - Pass Details

Date: 12 July 2022
Orbit: 890 x 1013 km, 83.1° (Epoch: 16 August)

Event Time Altitude Azimuth Distance (km) Brightness Sun altitude
Rises 23:24:45 0° 360° (N) 3,557 ? -11.2°
Reaches altitude 10° 23:27:29 10° 9° (N) 2,597 ? -11.6°
Maximum altitude 23:32:49 35° 74° (ENE) 1,410 ? -12.2°
Enters shadow 23:36:36 17° 131° (SE) 2,081 ? -12.7°
